Location: Home
(42.5358°N, 72.7383°W)
Time: 06:16:22
(UTC-05:00)

Courier 1B - Pass Details

Date: 01 December 2021
Orbit: 962 x 1209 km, 28.3° (Epoch: 25 January)

Event Time Altitude Azimuth Distance (km) Brightness Sun altitude
Rises 16:36:31 0° 217° (SW) 3,998 12.0 -3.7°
Reaches altitude 10° 16:40:34 10° 198° (SSW) 2,991 10.8 -4.4°
Maximum altitude 16:44:49 16° 162° (SSE) 2,493 9.8 -5.1°
Drops below altitude 10° 16:48:56 10° 126° (SE) 2,885 9.7 -5.8°
Sets 16:52:44 0° 106° (ESE) 3,791 10.1 -6.4°
